Regional Weather Roundup
Issued by NWS Charleston, SC

Current Version | Previous Version | Text Only | Print | Product List | Glossary Off
Versions: 1 2 3 4 5 6 7 8 9 10 11 12 13 14 15 16 17 18 19 20 21 22 23 24 25 26 27 28 29 30 31 32 33 34 35 36 37 38 39 40 41 42 43 44 45 46 47 48 49 50

000
ASUS42 KCHS 290227
RWRCHS

REGIONAL WEATHER ROUNDUP
NATIONAL WEATHER SERVICE CHARLESTON SC
1000 PM EDT TUE MAR 28 2017

NOTE: "FAIR" INDICATES FEW OR NO CLOUDS BELOW 12,000 FEET WITH NO
SIGNIFICANT WEATHER AND/OR OBSTRUCTIONS TO VISIBILITY.

NOT ALL STATIONS ARE QUALITY CONTROLLED. USE DATA WITH CAUTION...
ESPECIALLY DEWPOINT OBSERVATIONS.

SCZ027-030-031-034>040-042>050-290300-
...SOUTHEAST SOUTH CAROLINA...

CITY           SKY/WX    TMP DP  RH WIND       PRES   REMARKS
N CHARLESTON   CLEAR     66  62  87 SW6       29.95R
WATERFRONT PRK   N/A     67  64  90 VRB2      29.94R
JOHNS ISLAND   FAIR      68  63  83 SW9       29.96S
PINOPOLIS        N/A     72  64  78 S5        29.85R
MONCKS CORNER  FAIR      66  61  82 SW5       29.95R
SUMMERVILLE    FAIR      66  63  88 S3        29.96R
BEAUFORT MCAS  PTCLDY    67  66  97 SW3       29.96R
BEAUFORT ARPT  FAIR      66  63  88 S3        29.96S
HILTON HEAD IS CLEAR     70  64  83 S7        29.98R
WALTERBORO     CLEAR     66  63  88 CALM      29.97R
ALLENDALE      FAIR      68  59  73 CALM      29.95R

...SOUTHERN MIDLANDS AND PEE DEE...

CITY           SKY/WX    TMP DP  RH WIND       PRES   REMARKS
GEORGETOWN     FAIR      64  61  88 SW6       29.95R
KINGSTREE      FAIR      68  57  68 CALM      29.93S
ORANGEBURG     CLEAR     68  57  68 CALM      29.94R
BARNWELL       FAIR      68  61  77 CALM      29.95R
AIKEN          FAIR      64  55  72 W3        29.99R
MANNING        FAIR      64  55  72 CALM      29.94R
COLUMBIA       CLEAR     71  58  63 SW3       29.93R
SUMTER         CLEAR     73  57  57 W5        29.91R
FLORENCE       MOCLDY    74  57  55 N6        29.93R
MYRTLE BEACH   NOT AVBL
N MYRTLE BEACH CLEAR     64  61  90 SW6       29.91R

$$

GAZ063-065-086>088-099>101-113>116-118-119-134>141-150-290300-
...SOUTHEAST GEORGIA...

CITY           SKY/WX    TMP DP  RH WIND       PRES   REMARKS
SAVANNAH ARPT  CLEAR     72  58  61 SW3       29.97R
HUNTER AAF     CLEAR     70  65  84 CALM      29.95R
FORT STEWART   CLEAR     68  62  80 CALM      29.95R
STATESBORO     CLEAR     65  63  91 CALM      29.97R
SYLVANIA       PTCLDY   N/A N/A N/A CALM      29.98R
CLAXTON        FAIR     N/A N/A N/A CALM      29.98R

...CSRA...CENTRAL AND FAR SOUTHEAST GEORGIA...

CITY           SKY/WX    TMP DP  RH WIND       PRES   REMARKS
THOMSON        CLEAR     64  58  81 CALM      30.02R
AUGUSTA-BUSH   CLEAR     68  60  75 CALM      29.94R
AUGUSTA-DANIEL CLEAR     77  55  46 W5        29.96R
SWAINSBORO     MOCLDY    68  61  77 CALM      29.98S
VIDALIA        CLEAR     70  61  73 CALM      29.99R
EASTMAN        CLOUDY    70  52  53 CALM      30.01R
HAZLEHURST     FAIR      71  64  77 CALM      29.98R
ALMA           CLEAR     68  62  81 CALM      29.98R
WAYCROSS       CLEAR     73  66  78 W3        30.00R
JESUP          FAIR      68  59  73 CALM      29.99R
BAXLEY         FAIR      70  66  88 CALM      29.99R
BRUNSWICK      CLEAR     70  64  83 CALM      30.00R
SAINT SIMONS   CLEAR     70  64  81 S8        29.99R

$$

SCZ027-028-034-036>038-045-046-048>050-GAZ119-141-290300-
...LAKE AND SUPPLEMENTAL COASTAL OBSERVATIONS...

STATION/POSITION TIME  TEMP    WIND        PRES    WAVE   SWELL
                       AIR SEA DIR/SP/G            HT/PER HT/PER/DIR
                 (UTC) (F)     (DEG/KT/KT) (MB)    (FT/S) (FT/S/D)
WINYAH BAY       0145   69     250/  6     1013.0S
LAKE MURRAY      0150   70     260/  2/  3 1013.2R
ACE BASIN NERRS  0130   67        CALM     1014.0S
FORT PULASKI     0200   69 65  210/  6/  8 1015.2
SAPELO ISLAND    0200   70     190/  9     1015.0

$$

ANZ835-935-AMZ111-154-330-350-352-354-370-450-454-472-290300-
...C-MAN AND BUOY OBSERVATIONS...

STATION/POSITION TIME  TEMP    WIND        PRES    WAVE   SWELL
                       AIR SEA DIR/SP/G            HT/PER HT/PER/DIR
                 (UTC) (F)     (DEG/KT/KT) (MB)    (FT/S) (FT/S/D)
BUOY 41004       0150   70 71  240/ 12/ 14 1013.8R   5/11   3/130/11
BUOY 41008       0150   66 64  210/ 10/ 12 1014.7R   3/11   3/110/11
FOLLY BEACH CMAN 0200   66     230/  9/ 11 1015.1R
CAPERS NEARSHORE NOT AVBL
FRIPP NEARSHORE  0208   66 64  230/  8/ 12 1014.6R


STATION/POSITION TIME  TEMP    WIND        PRES    WAVE   SWELL
                       AIR SEA DIR/SP/G            HT/PER HT/PER/DIR
                 (UTC) (F)     (DEG/KT/KT) (MB)    (FT/S) (FT/S/D)
5E ST. MARYS GA  0200      67                N/A     4/11   2/120/11
FRYING PAN BUOY  0210   74 73  230/ 17/ 21 1013.3
BUOY 41025       0150   71 75  250/ 21/ 25 1012.1R   5/10   3/150/10
CAPE LOOKOUT NC  0200   65     230/  7/ 10 1012.7F
BUOY 41002       0150   70 73  210/ 10/ 12 1016.2R   6/10   7/100/10
BUOY 41010       NOT AVBL
ST AUGUSTINE FL  0200   71 69  190/  7/  9 1016.9R


$$



USA.gov is the U.S. government's official web portal to all federal, state and local government web resources and services.